FW5763 Weather Reports


Display with metric or nautical units.
time (UTC)temp
F
wind
direction
speed
MPH
gust
MPH
rain 1hr
in
rain 24hr
in
rain mn
in
humidity
%
barometer
mb
20260903074515 56 0.0 0.0 0.00 0.00 0.00 89 1017.4
20260903073515 56 0.0 0.0 0.00 0.00 0.00 89 1017.5
20260903072515 57 0.0 0.0 0.00 0.00 0.00 89 1017.4
20260903071515 57 0.0 1.0 0.00 0.00 0.00 89 1017.4
20260903070515 57 0.0 0.0 0.00 0.00 0.00 89 1017.3
20260903065535 57 0.0 0.0 0.00 0.00 0.00 89 1017.4
20260903064515 57 0.0 1.0 0.00 0.00 0.00 88 1017.3
20260903063515 57 323 1.0 1.0 0.00 0.00 0.00 88 1017.3
20260903062515 58 0.0 0.0 0.00 0.00 0.00 87 1017.2
20260903061515 58 0.0 0.0 0.00 0.00 0.00 86 1017.3
20260903060515 58 323 0.0 1.0 0.00 0.00 0.00 87 1017.3
20260903055515 58 0.0 0.0 0.00 0.00 0.00 86 1017.5
20260903054515 58 0.0 0.0 0.00 0.00 0.00 85 1017.7
20260903053517 58 0.0 0.0 0.00 0.00 0.00 85 1017.7
20260903052517 59 0.0 0.0 0.00 0.00 0.00 84 1017.7
20260903051516 59 0.0 0.0 0.00 0.00 0.00 84 1017.6
20260903050518 59 0.0 0.0 0.00 0.00 0.00 83 1017.7
20260903045538 60 0.0 0.0 0.00 0.00 0.00 83 1017.6
20260903044515 60 0.0 0.0 0.00 0.00 0.00 82 1017.5
20260903043517 61 0.0 0.0 0.00 0.00 0.00 82 1017.5
20260903042517 61 292 0.0 1.0 0.00 0.00 0.00 82 1017.5
20260903041517 61 0.0 0.0 0.00 0.00 0.00 81 1017.4
20260903040515 62 0.0 0.0 0.00 0.00 0.00 80 1017.3
20260903035517 62 0.0 0.0 0.00 0.00 0.00 80 1017.2
20260903034517 63 0.0 0.0 0.00 0.00 0.00 79 1017.1
20260903033516 63 0.0 1.0 0.00 0.00 0.00 78 1016.9
20260903032537 63 0.0 0.0 0.00 0.00 0.00 78 1016.8
20260903031517 64 0.0 1.0 0.00 0.00 0.00 77 1016.8
20260903030517 64 86 1.0 1.0 0.00 0.00 0.00 76 1016.8
20260903025516 65 92 0.0 2.0 0.00 0.00 0.00 75 1016.7
20260903024517 65 98 1.0 2.0 0.00 0.00 0.00 73 1016.6
20260903023517 66 104 1.0 2.0 0.00 0.00 0.00 72 1016.6
20260903022516 67 101 1.0 3.0 0.00 0.00 0.00 70 1016.6
20260903021517 68 193 0.0 1.0 0.00 0.00 0.00 69 1016.6
20260903020517 68 223 0.0 1.0 0.00 0.00 0.00 68 1016.7
20260903015517 68 174 4.0 5.0 0.00 0.00 0.00 67 1016.9
20260903014517 68 209 3.0 5.0 0.00 0.00 0.00 67 1016.9
20260903013517 69 202 2.0 3.0 0.00 0.00 0.00 67 1017.0
20260903012518 69 214 3.0 5.0 0.00 0.00 0.00 67 1017.0
20260903011516 69 175 4.0 8.0 0.00 0.00 0.00 67 1017.2
20260903010517 69 231 2.0 8.0 0.00 0.00 0.00 67 1017.2
20260903005517 69 213 3.0 4.0 0.00 0.00 0.00 67 1017.2
20260903004537 69 226 5.0 7.0 0.00 0.00 0.00 67 1017.3
20260903003516 69 223 3.0 10.0 0.00 0.00 0.00 65 1017.4
20260903002517 69 210 5.0 8.0 0.00 0.00 0.00 66 1017.4
20260903001517 70 210 5.0 9.0 0.00 0.00 0.00 65 1017.4
20260903000517 70 207 5.0 10.0 0.00 0.00 0.00 65 1017.4
20260902235517 69 239 4.0 7.0 0.00 0.00 0.00 68 1017.3
20260902234516 70 229 6.0 11.0 0.00 0.00 0.00 66 1017.5
20260902233517 70 215 3.0 6.0 0.00 0.00 0.00 67 1017.4
20260902232517 69 223 4.0 8.0 0.00 0.00 0.00 68 1017.5
20260902231517 70 218 8.0 11.0 0.00 0.00 0.00 67 1017.6
20260902230517 69 203 6.0 11.0 0.00 0.00 0.00 68 1017.6
20260902225517 69 210 8.0 13.0 0.00 0.00 0.00 71 1017.7
20260902224517 69 241 9.0 14.0 0.00 0.00 0.00 71 1018.0
20260902223517 69 193 5.0 13.0 0.00 0.00 0.00 72 1017.9
20260902222515 69 224 7.0 11.0 0.00 0.00 0.00 72 1017.9
20260902221517 69 197 7.0 12.0 0.00 0.00 0.00 71 1017.9
20260902220517 69 232 8.0 11.0 0.00 0.00 0.00 72 1018.1
20260902215517 69 189 5.0 11.0 0.00 0.00 0.00 73 1018.2
20260902214515 68 198 8.0 11.0 0.00 0.00 0.00 74 1018.3
20260902213537 68 183 7.0 13.0 0.00 0.00 0.00 75 1018.4
20260902212517 68 183 8.0 13.0 0.00 0.00 0.00 74 1018.5
20260902211517 69 187 7.0 11.0 0.00 0.00 0.00 73 1018.6
20260902210517 69 199 6.0 11.0 0.00 0.00 0.00 72 1018.6
20260902205517 70 189 9.0 12.0 0.00 0.00 0.00 71 1018.5
20260902204517 70 192 6.0 11.0 0.00 0.00 0.00 70 1018.5
20260902203516 70 225 9.0 13.0 0.00 0.00 0.00 69 1018.6
20260902202517 70 194 7.0 11.0 0.00 0.00 0.00 70 1018.8
20260902201537 69 190 4.0 8.0 0.00 0.00 0.00 71 1018.7
20260902200536 69 192 7.0 10.0 0.00 0.00 0.00 69 1018.6
20260902195517 69 222 3.0 6.0 0.00 0.00 0.00 71 1018.5
20260902194537 69 224 6.0 7.0 0.00 0.00 0.00 71 1018.6
20260902193517 69 239 5.0 8.0 0.00 0.00 0.00 71 1018.7
20260902192517 67 198 5.0 7.0 0.00 0.00 0.00 74 1018.9
20260902191517 68 215 4.0 7.0 0.00 0.00 0.00 73 1019.0
20260902190516 67 213 2.0 5.0 0.00 0.00 0.00 75 1019.1
20260902185537 67 212 1.0 6.0 0.00 0.00 0.00 74 1019.1
20260902184517 67 208 2.0 7.0 0.00 0.00 0.00 74 1019.0
20260902183637 67 216 4.0 5.0 0.00 0.00 0.00 74 1019.1
20260902182517 67 241 5.0 9.0 0.00 0.00 0.00 73 1019.2
20260902181517 67 118 3.0 6.0 0.00 0.00 0.00 73 1019.1
20260902180537 66 148 3.0 5.0 0.00 0.00 0.00 74 1019.1
20260902175516 66 248 3.0 4.0 0.00 0.00 0.00 76 1019.1
20260902174517 65 103 3.0 4.0 0.00 0.00 0.00 76 1019.1
20260902173516 65 196 1.0 4.0 0.00 0.00 0.00 75 1019.1
20260902172536 65 112 2.0 6.0 0.00 0.00 0.00 75 1019.0
20260902171516 65 209 2.0 5.0 0.00 0.00 0.00 74 1019.0
20260902170517 64 226 0.0 1.0 0.00 0.00 0.00 74 1019.0
20260902165516 64 247 0.0 1.0 0.00 0.00 0.00 74 1018.9
20260902164517 64 191 1.0 1.0 0.00 0.00 0.00 76 1018.9
20260902163516 63 104 0.0 2.0 0.00 0.00 0.00 76 1019.0
20260902162517 63 96 2.0 3.0 0.00 0.00 0.00 76 1019.1
20260902161516 63 129 2.0 4.0 0.00 0.00 0.00 76 1018.9
20260902160517 62 172 0.0 2.0 0.00 0.00 0.00 76 1018.9
20260902155517 63 91 1.0 2.0 0.00 0.00 0.00 75 1019.0
20260902154516 63 0.0 0.0 0.00 0.00 0.00 76 1018.8
20260902153516 62 0.0 0.0 0.00 0.00 0.00 78 1018.7
20260902152537 60 92 0.0 3.0 0.00 0.00 0.00 81 1018.5
20260902151516 59 77 1.0 2.0 0.00 0.00 0.00 86 1018.4
20260902150517 57 44 1.0 1.0 0.00 0.00 0.00 89 1018.3
20260902145516 56 314 0.0 1.0 0.00 0.00 0.00 91 1018.4
20260902144536 55 0.0 0.0 0.00 0.00 0.00 91 1018.4
20260902143516 54 325 0.0 2.0 0.00 0.00 0.00 91 1018.4
20260902142516 54 0.0 0.0 0.00 0.00 0.00 90 1018.3
20260902141516 54 0.0 0.0 0.00 0.00 0.00 90 1018.2
20260902140516 53 0.0 0.0 0.00 0.00 0.00 90 1018.1
20260902135517 53 0.0 0.0 0.00 0.00 0.00 90 1018.0
20260902134557 53 0.0 0.0 0.00 0.00 0.00 89 1018.0
20260902133816 53 0.0 0.0 0.00 0.00 0.00 89 1017.9
20260902132816 53 0.0 0.0 0.00 0.00 0.00 89 1017.8
20260902131817 53 0.0 0.0 0.00 0.00 0.00 89 1017.9
20260902130836 53 0.0 0.0 0.00 0.00 0.00 89 1017.9
20260902125817 53 0.0 0.0 0.00 0.00 0.00 89 1017.8
20260902124816 53 0.0 0.0 0.00 0.00 0.00 89 1017.8
20260902123816 53 0.0 0.0 0.00 0.00 0.00 88 1017.8
20260902122837 53 0.0 0.0 0.00 0.00 0.00 88 1017.8
20260902121816 53 0.0 0.0 0.00 0.00 0.00 88 1017.8
20260902120816 53 0.0 0.0 0.00 0.00 0.00 88 1017.7
20260902115816 53 0.0 0.0 0.00 0.00 0.00 88 1017.6
20260902114836 53 0.0 0.0 0.00 0.00 0.00 88 1017.6
20260902113836 53 0.0 0.0 0.00 0.00 0.00 88 1017.8
20260902112836 52 0.0 0.0 0.00 0.00 0.00 88 1017.9
20260902111816 52 0.0 0.0 0.00 0.00 0.00 88 1017.9
20260902110816 52 0.0 0.0 0.00 0.00 0.00 88 1017.9
20260902105816 52 0.0 0.0 0.00 0.00 0.00 88 1017.7
20260902104816 52 0.0 0.0 0.00 0.00 0.00 88 1017.7
20260902103816 52 0.0 0.0 0.00 0.00 0.00 88 1017.6
20260902102816 52 0.0 0.0 0.00 0.00 0.00 87 1017.6
20260902101816 53 0.0 0.0 0.00 0.00 0.00 87 1017.5
20260902100816 53 0.0 0.0 0.00 0.00 0.00 88 1017.6
20260902095816 53 0.0 0.0 0.00 0.00 0.00 88 1017.6
20260902094836 53 0.0 0.0 0.00 0.00 0.00 88 1017.7
20260902093816 53 0.0 0.0 0.00 0.00 0.00 87 1017.7
20260902092816 54 0.0 0.0 0.00 0.00 0.00 87 1017.7
20260902091816 54 0.0 0.0 0.00 0.00 0.00 87 1017.5
20260902090816 54 0.0 0.0 0.00 0.00 0.00 86 1017.5
20260902085816 54 0.0 0.0 0.00 0.00 0.00 86 1017.7
20260902084816 55 0.0 0.0 0.00 0.00 0.00 86 1017.9
20260902083816 55 0.0 0.0 0.00 0.00 0.00 87 1017.9
20260902082816 55 0.0 0.0 0.00 0.00 0.00 87 1018.0
20260902081816 54 0.0 0.0 0.00 0.00 0.00 87 1017.9
20260902080816 54 0.0 0.0 0.00 0.00 0.00 85 1017.8
20260902075816 54 0.0 0.0 0.00 0.00 0.00 85 1017.8
20260902074937 54 0.0 0.0 0.00 0.00 0.00 84 1017.8